SL-8 R/B

Satellite information

Favourite Embed

Satellite Type and Status

ROCKET BODYIN ORBIT

Key statistics

Satellite SL-8 R/B at a glance.

Uptime

17125

Days in orbit

Revolutions

≈ 14.4

Per day

Orbit

LEO

Low Earth Orbit

Inclination

74.1

Latest

Satellite identification and parameters

Extended collection of information and parameters for SL-8 R/B.

Object identification

Identified? True

Debris? False

Object name: SL-8 R/B

International designator: 1978-063B

Object number (NORAD): 10962

Object ID (CCSDS): 10962

Country: COMMONWEALTH OF INDEPENDENT STATES (CIS)

Current information (Y/N): Y

RCS size: LARGE

Orbital parameters

Period: 99.82 minutes

Inclination: 74.0773 deg

SMA: 7128.046 km

Apoapsis: 767.596 km

Periapsis: 732.226 km

RAAN: 294.7728 deg

Eccentricy: 0.002481

Argument of periapsis: 176.7514 deg

Mean anomaly: 183.3809 deg

Mean motion: 14.42603658 rev/day

Mean motion (dot): 0.00000523 rev/day2

B* drag term: 0.00016488 1/REarth

Two-line elements (TLE)

Creation date: May 9, 2025, 2:46 a.m.

Reference frame: TEME

Reference center: EARTH

Epoch: May 8, 2025, 3:05 p.m. UTC

TLE line 0: 0 SL-8 R/B

TLE line 1: 1 10962U 78063B 25128.62901771 .00000523 00000-0 16488-3 0 9993

TLE line 2: 2 10962 74.0773 294.7728 0024810 176.7514 183.3809 14.42603658460981

Live tracking on map

Real-time ground track for satellite SL-8 R/B.

In-orbit conjunctions

A list of the most updated potential collisions computed for object SL-8 R/B.

Target Orbit TCA Probability of collision Miss distance Type
DMSP 5D-2 F13 DEB SSO 2025-04-28 04:04:27 0.000153496 231.0 (m) DEBRIS
NOAA 16 DEB SSO 2025-02-18 18:08:07 0.0005213252 238.0 (m) DEBRIS
FENGYUN 1C DEB SSO 2024-11-29 16:40:43 0.0002172777 331.0 (m) DEBRIS
CZ-6A DEB LEO 2024-10-02 17:15:02 0.0001165205 255.0 (m) DEBRIS

Associated space launch

Military communications satellite

SL-8 R/B was lifted into orbit during the mission ‘Kosmos-3M | Strela-2M 18’, on board a Kosmos-3M space rocket.

The launch took place on June 21, 1978, 9:27 a.m. from 132/1 (132L).

For more information about the launch, click the button.

Launch to space Kosmos-3M | Strela-2M 18
Kosmos-3M | Strela-2M 18

Agency: N/A

Status: Launch Successful

Launch date: June 21, 1978, 9:27 a.m. UTC

Rocket: Kosmos-3M

Launch pad: 132/1 (132L)

Location: Plesetsk Cosmodrome, Russian Federation

...

Latest news about this satellite

There are no fresh news available about this satellite. Check back as we update our databases every day.


Newsletter sign-up

Weekly statistics, charts and insights to help you stay on top of the space industry.